Track GONETS-M 9 now! 10-day predictions GONETS-M 9 is classified as:
1 40062U 14036B 25201.61654384 .00000010 00000-0 -22900-5 0 9993 2 40062 82.5119 153.6201 0023110 155.1339 205.0860 12.42937580501268